• în România
  • Lista ţărilor
  • Pe 7 zile
  • Temperatura apei
  • Hartă satelitară
  • Meteo pe hartă
  • Widget-uri
  • user-avatar
    Intrare

    Meteo pe oră la Bruges

    Astăzi, 19 Septembrie, Miercuri

    Timp Temperatura Precipitaţii Vânt Presiune Umiditate
    00:00 +15°C° 0 mm 4 m/s 760 mmHg 88%
    01:00 +15°C° 0 mm 4 m/s 760 mmHg 88%
    02:00 +15°C° 0 mm 4 m/s 760 mmHg 88%
    03:00 +15°C° 0 mm 4 m/s 760 mmHg 89%
    04:00 +15°C° 0 mm 5 m/s 760 mmHg 90%
    05:00 +15°C° 0 mm 5 m/s 760 mmHg 91%
    06:00 +15°C° 0 mm 5 m/s 760 mmHg 92%
    07:00 +16°C° 0 mm 6 m/s 760 mmHg 86%
    08:00 +19°C° 0 mm 6 m/s 761 mmHg 79%
    09:00 +20°C° 0 mm 7 m/s 761 mmHg 72%
    10:00 +21°C° 0 mm 7 m/s 761 mmHg 67%
    11:00 +22°C° 0 mm 8 m/s 761 mmHg 62%
    12:00 +24°C° 0 mm 8 m/s 761 mmHg 58%
    13:00 +24°C° 0 mm 8 m/s 761 mmHg 58%
    14:00 +23°C° 0 mm 8 m/s 760 mmHg 59%
    15:00 +23°C° 0 mm 8 m/s 760 mmHg 59%
    16:00 +22°C° 0 mm 7 m/s 760 mmHg 63%
    17:00 +21°C° 0 mm 7 m/s 760 mmHg 67%
    18:00 +20°C° 0 mm 6 m/s 761 mmHg 71%
    19:00 +20°C° 0 mm 6 m/s 761 mmHg 74%
    20:00 +19°C° 0 mm 6 m/s 761 mmHg 77%
    21:00 +19°C° 0 mm 6 m/s 761 mmHg 80%
    22:00 +17°C° 0 mm 6 m/s 762 mmHg 83%
    23:00 +17°C° 0 mm 6 m/s 762 mmHg 85%

    Mâine, 20 Septembrie, Joi

    Timp Temperatura Precipitaţii Vânt Presiune Umiditate
    00:00 +16°C° 0 mm 6 m/s 762 mmHg 88%
    01:00 +16°C° 0 mm 6 m/s 762 mmHg 90%
    02:00 +16°C° 0 mm 6 m/s 762 mmHg 91%
    03:00 +15°C° 0 mm 5 m/s 762 mmHg 93%
    04:00 +15°C° 0 mm 6 m/s 761 mmHg 93%
    05:00 +15°C° 0 mm 6 m/s 761 mmHg 93%
    06:00 +15°C° 0 mm 6 m/s 761 mmHg 93%
    07:00 +16°C° 0 mm 6 m/s 761 mmHg 86%
    08:00 +18°C° 0 mm 7 m/s 761 mmHg 79%
    09:00 +20°C° 0 mm 8 m/s 761 mmHg 72%
    10:00 +21°C° 0 mm 8 m/s 761 mmHg 68%
    11:00 +23°C° 0 mm 8 m/s 760 mmHg 64%
    12:00 +24°C° 0 mm 8 m/s 760 mmHg 60%
    13:00 +24°C° 0 mm 8 m/s 760 mmHg 60%
    14:00 +24°C° 0 mm 7 m/s 759 mmHg 59%
    15:00 +24°C° 0 mm 7 m/s 759 mmHg 59%
    16:00 +23°C° 0 mm 6 m/s 758 mmHg 63%
    17:00 +22°C° 0 mm 5 m/s 757 mmHg 67%
    18:00 +21°C° 0 mm 5 m/s 757 mmHg 71%
    19:00 +21°C° 0 mm 5 m/s 756 mmHg 67%
    20:00 +21°C° 0 mm 6 m/s 756 mmHg 64%
    21:00 +22°C° 0 mm 7 m/s 755 mmHg 60%
    22:00 +21°C° 0 mm 8 m/s 755 mmHg 61%
    23:00 +21°C° 0 mm 8 m/s 754 mmHg 61%

    Poimâine, 21 Septembrie, Vineri

    Timp Temperatura Precipitaţii Vânt Presiune Umiditate
    00:00 +21°C° 0 mm 9 m/s 753 mmHg 62%
    01:00 +19°C° 0.2 mm 10 m/s 752 mmHg 64%
    02:00 +19°C° 0.2 mm 10 m/s 752 mmHg 66%
    03:00 +19°C° 0.2 mm 11 m/s 751 mmHg 68%
    04:00 +18°C° 1.5 mm 11 m/s 752 mmHg 71%
    05:00 +17°C° 1.5 mm 11 m/s 752 mmHg 74%
    06:00 +16°C° 1.5 mm 11 m/s 753 mmHg 77%
    07:00 +16°C° 0 mm 11 m/s 754 mmHg 72%
    08:00 +14°C° 0 mm 10 m/s 755 mmHg 66%
    09:00 +13°C° 0 mm 10 m/s 756 mmHg 61%
    10:00 +14°C° 0 mm 10 m/s 756 mmHg 56%
    11:00 +16°C° 0 mm 10 m/s 757 mmHg 52%
    12:00 +16°C° 0 mm 10 m/s 758 mmHg 47%
    13:00 +17°C° 0 mm 11 m/s 758 mmHg 47%
    14:00 +17°C° 0 mm 11 m/s 758 mmHg 47%
    15:00 +17°C° 0 mm 11 m/s 758 mmHg 47%
    16:00 +16°C° 0.1 mm 10 m/s 759 mmHg 50%
    17:00 +14°C° 0.1 mm 10 m/s 759 mmHg 53%
    18:00 +13°C° 0.1 mm 9 m/s 760 mmHg 56%
    19:00 +13°C° 0.1 mm 9 m/s 761 mmHg 57%
    20:00 +13°C° 0.1 mm 8 m/s 761 mmHg 59%
    21:00 +12°C° 0.1 mm 8 m/s 762 mmHg 60%
    22:00 +12°C° 0 mm 8 m/s 763 mmHg 62%
    23:00 +11°C° 0 mm 7 m/s 763 mmHg 64%

    22 Septembrie, Sâmbătă

    Timp Temperatura Precipitaţii Vânt Presiune Umiditate
    00:00 +11°C° 0 mm 7 m/s 763 mmHg 65%
    01:00 +11°C° 0 mm 7 m/s 764 mmHg 68%
    02:00 +10°C° 0 mm 6 m/s 764 mmHg 70%
    03:00 +10°C° 0 mm 6 m/s 764 mmHg 72%
    04:00 +10°C° 0.2 mm 6 m/s 765 mmHg 74%
    05:00 +9°C° 0.2 mm 6 m/s 765 mmHg 75%
    06:00 +9°C° 0.2 mm 6 m/s 765 mmHg 77%
    07:00 +11°C° 0.2 mm 6 m/s 766 mmHg 71%
    08:00 +13°C° 0.2 mm 6 m/s 766 mmHg 66%
    09:00 +15°C° 0.2 mm 6 m/s 766 mmHg 60%
    10:00 +15°C° 0.1 mm 6 m/s 766 mmHg 57%
    11:00 +16°C° 0.1 mm 6 m/s 766 mmHg 55%
    12:00 +16°C° 0.1 mm 6 m/s 767 mmHg 53%
    13:00 +16°C° 0 mm 6 m/s 767 mmHg 51%
    14:00 +16°C° 0 mm 6 m/s 767 mmHg 50%
    15:00 +16°C° 0 mm 6 m/s 767 mmHg 49%
    16:00 +15°C° 0 mm 5 m/s 767 mmHg 53%
    17:00 +14°C° 0 mm 4 m/s 767 mmHg 58%
    18:00 +12°C° 0 mm 3 m/s 767 mmHg 62%
    19:00 +12°C° 0 mm 3 m/s 767 mmHg 64%
    20:00 +12°C° 0 mm 3 m/s 766 mmHg 65%
    21:00 +12°C° 0 mm 3 m/s 766 mmHg 66%
    22:00 +12°C° 0.2 mm 4 m/s 766 mmHg 68%
    23:00 +12°C° 0.2 mm 4 m/s 765 mmHg 70%

    23 Septembrie, Duminică

    Timp Temperatura Precipitaţii Vânt Presiune Umiditate
    00:00 +12°C° 0.2 mm 4 m/s 765 mmHg 71%
    01:00 +10°C° 0.9 mm 5 m/s 764 mmHg 76%
    02:00 +10°C° 0.9 mm 6 m/s 763 mmHg 80%
    03:00 +10°C° 0.9 mm 6 m/s 762 mmHg 84%
    04:00 +10°C° 0.5 mm 8 m/s 761 mmHg 81%
    05:00 +11°C° 0.5 mm 9 m/s 759 mmHg 79%
    06:00 +11°C° 0.5 mm 11 m/s 757 mmHg 76%
    07:00 +12°C° 0.6 mm 11 m/s 756 mmHg 73%
    08:00 +13°C° 0.6 mm 11 m/s 754 mmHg 70%
    09:00 +14°C° 0.6 mm 12 m/s 752 mmHg 67%
    10:00 +15°C° 1.8 mm 12 m/s 751 mmHg 70%
    11:00 +18°C° 1.8 mm 13 m/s 749 mmHg 72%
    12:00 +19°C° 1.8 mm 13 m/s 747 mmHg 74%
    13:00 +19°C° 0.7 mm 15 m/s 746 mmHg 72%
    14:00 +19°C° 0.7 mm 17 m/s 744 mmHg 71%
    15:00 +19°C° 0.7 mm 18 m/s 743 mmHg 69%
    16:00 +16°C° 0.2 mm 18 m/s 742 mmHg 68%
    17:00 +15°C° 0.2 mm 18 m/s 741 mmHg 67%
    18:00 +12°C° 0.2 mm 18 m/s 741 mmHg 66%
    19:00 +12°C° 0.3 mm 18 m/s 741 mmHg 69%
    20:00 +13°C° 0.3 mm 17 m/s 742 mmHg 71%
    21:00 +13°C° 0.3 mm 17 m/s 743 mmHg 74%
    22:00 +12°C° 0.3 mm 18 m/s 746 mmHg 72%
    23:00 +12°C° 0.3 mm 19 m/s 749 mmHg 71%

    24 Septembrie, Luni

    Timp Temperatura Precipitaţii Vânt Presiune Umiditate
    00:00 +12°C° 0.3 mm 20 m/s 753 mmHg 69%
    01:00 +12°C° 0.2 mm 18 m/s 756 mmHg 68%
    02:00 +13°C° 0.2 mm 16 m/s 759 mmHg 66%
    03:00 +12°C° 0.2 mm 14 m/s 762 mmHg 64%
    04:00 +12°C° 0.1 mm 13 m/s 764 mmHg 64%
    05:00 +10°C° 0.1 mm 12 m/s 765 mmHg 64%
    06:00 +11°C° 0.1 mm 11 m/s 767 mmHg 64%
    07:00 +12°C° 0.1 mm 11 m/s 768 mmHg 62%
    08:00 +12°C° 0.1 mm 11 m/s 769 mmHg 61%
    09:00 +12°C° 0.1 mm 10 m/s 771 mmHg 60%
    10:00 +12°C° 0.1 mm 10 m/s 772 mmHg 60%
    11:00 +13°C° 0.1 mm 10 m/s 772 mmHg 60%
    12:00 +13°C° 0.1 mm 9 m/s 773 mmHg 60%
    13:00 +13°C° 0.1 mm 9 m/s 773 mmHg 59%
    14:00 +13°C° 0.1 mm 8 m/s 774 mmHg 59%
    15:00 +12°C° 0.1 mm 8 m/s 774 mmHg 58%
    16:00 +12°C° 0.1 mm 7 m/s 774 mmHg 59%
    17:00 +11°C° 0.1 mm 6 m/s 775 mmHg 61%
    18:00 +12°C° 0.1 mm 5 m/s 775 mmHg 62%
    19:00 +10°C° 0 mm 5 m/s 775 mmHg 64%
    20:00 +11°C° 0 mm 4 m/s 776 mmHg 65%
    21:00 +11°C° 0 mm 4 m/s 776 mmHg 67%
    22:00 +10°C° 0 mm 3 m/s 776 mmHg 68%
    23:00 +10°C° 0 mm 3 m/s 776 mmHg 69%
    Arată mai mult